Date,TemperatureHighF,TemperatureAvgF,TemperatureLowF,DewpointHighF,DewpointAvgF,DewpointLowF,HumidityHigh,HumidityAvg,HumidityLow,PressureMaxIn,PressureMinIn,WindSpeedMaxMPH,WindSpeedAvgMPH,GustSpeedMaxMPH,PrecipitationSumIn
2013-1-1,33.8,27.2,22.8,20.2,9.9,-99.9,65,52,46,29.96,29.81,8,-30,0,0.11
2013-1-2,29.3,23.7,16.7,15.7,11.4,8.2,72,59,49,30.13,29.95,7,2,0,0.00
2013-1-3,29.8,19.8,9.9,16.1,6.2,-2.8,85,57,35,30.19,30.03,9,2,0,0.00
2013-1-4,39.4,30.8,20.5,25.2,21.6,16.2,88,69,54,30.02,29.87,10,3,0,0.02
2013-1-5,44.1,32.7,23.5,25.3,22.6,19.3,95,68,43,30.24,29.92,8,2,0,0.00
2013-1-6,41.7,33.3,25.3,35.8,30.2,23.3,99,89,67,30.20,29.94,9,1,0,0.04
2013-1-7,44.2,31.2,21.9,31.7,24.7,21.1,99,80,46,30.36,29.98,6,1,0,0.00
2013-1-8,47.7,36.2,21.0,36.9,31.1,20.5,99,84,55,30.40,30.30,13,2,0,0.00
2013-1-9,45.5,36.7,23.7,40.5,33.5,23.5,99,89,72,30.36,30.05,9,2,0,0.00
2013-1-10,47.5,39.6,27.0,36.8,26.3,23.1,92,61,39,30.50,30.07,8,2,0,0.00
2013-1-11,44.1,34.8,23.7,43.8,32.2,23.2,99,91,67,30.50,30.11,6,1,0,0.23
2013-1-12,48.6,45.3,42.3,48.3,44.9,42.0,99,99,97,30.12,30.04,5,1,0,0.09
2013-1-13,48.7,44.5,42.6,47.0,44.2,42.3,99,99,92,30.12,29.97,3,0,0,0.00
2013-1-14,59.0,49.3,37.4,55.1,43.9,29.4,99,84,48,30.21,29.92,8,2,0,0.04
2013-1-15,41.5,37.1,34.2,34.5,31.3,27.3,99,80,63,30.28,30.16,3,1,0,0.26
2013-1-16,36.1,34.0,32.2,34.9,33.3,28.3,99,98,73,30.18,29.72,4,1,0,0.51
2013-1-17,44.4,37.2,32.5,34.4,29.9,18.5,99,76,52,30.02,29.80,7,2,0,0.21
2013-1-18,32.4,25.5,16.3,19.9,8.5,-0.7,85,50,29,30.44,29.94,11,2,0,0.00
2013-1-19,47.5,39.8,27.1,36.4,29.4,15.2,86,67,53,30.37,29.89,14,5,0,0.00
2013-1-20,54.3,43.5,29.5,37.3,29.5,13.6,88,60,33,29.91,29.58,17,4,0,0.00
2013-1-21,30.9,27.2,19.0,28.6,17.7,9.4,98,69,41,30.07,29.72,6,1,0,0.00
2013-1-22,26.8,21.0,12.9,25.7,6.5,-2.4,99,57,29,30.07,29.71,15,3,0,0.00
2013-1-23,19.6,12.7,5.5,-0.5,-3.3,-5.9,65,49,33,30.16,30.06,14,3,0,0.00
2013-1-24,22.3,13.1,2.1,0.2,-4.6,-7.7,75,47,26,30.26,30.08,18,4,0,0.00
2013-1-25,26.1,18.7,11.3,17.2,3.0,-1.9,90,52,31,30.32,29.98,10,2,0,0.00
2013-1-26,27.3,18.3,9.0,14.7,7.5,2.5,97,65,41,30.26,29.96,10,2,0,0.00
2013-1-27,34.5,21.2,8.2,10.3,4.1,0.4,85,51,25,30.43,30.26,7,2,0,0.00
2013-1-28,34.5,27.1,14.5,34.2,21.6,5.8,99,81,45,30.42,29.92,5,0,0,0.07
2013-1-29,40.6,35.8,31.6,36.8,34.0,31.4,99,93,79,30.14,29.91,7,1,0,0.17
2013-1-30,55.9,49.0,36.5,54.5,48.5,36.2,99,98,91,30.08,29.41,7,2,0,0.01
2013-1-31,58.1,47.3,31.1,56.7,35.0,10.5,99,65,36,29.61,28.99,17,7,0,0.44
2013-2-1,33.8,28.2,16.3,17.4,10.2,5.8,69,47,32,30.11,29.62,12,4,0,0.00
2013-2-2,31.5,25.0,14.2,21.3,12.7,7.1,83,60,42,30.24,30.00,11,2,0,0.00
2013-2-3,34.2,25.3,17.2,20.7,17.4,15.1,97,74,47,30.00,29.68,5,1,0,0.00
2013-2-4,33.4,25.1,15.4,17.7,10.5,5.7,93,57,34,29.90,29.70,15,2,0,0.00
2013-2-5,28.4,25.6,21.4,23.4,19.4,8.6,89,77,57,29.97,29.85,5,1,0,0.00
2013-2-6,40.3,31.5,26.4,28.5,20.7,1.9,93,67,32,30.26,29.86,6,2,0,0.02
2013-2-7,32.7,26.5,16.3,18.0,9.2,2.3,73,48,33,30.49,30.25,4,2,0,0.00
2013-2-8,33.6,31.4,27.1,32.8,28.6,15.8,99,90,61,30.37,29.38,8,4,0,0.00
2013-2-10,21.0,17.4,15.4,18.8,16.3,14.7,97,95,91,30.36,30.29,0,0,0,0.00
2013-2-11,45.3,34.0,15.8,45.0,33.5,15.1,99,98,95,30.31,29.57,8,1,0,1.66
2013-2-12,45.7,38.7,28.4,41.1,31.2,25.5,99,76,51,29.85,29.58,11,2,0,0.01
2013-2-13,43.9,33.7,22.3,28.5,25.6,21.6,98,74,47,29.85,29.59,7,1,0,0.00
2013-2-14,45.0,34.0,25.0,32.0,27.8,24.8,99,80,45,29.95,29.63,6,1,0,0.07
2013-2-15,49.5,35.9,24.6,39.0,32.5,24.4,99,88,65,29.97,29.86,8,1,0,0.00
2013-2-16,40.1,35.4,30.7,34.4,29.9,24.0,99,81,63,29.88,29.57,7,2,0,0.00
2013-2-17,30.4,24.5,17.4,25.8,9.2,1.1,94,54,33,29.74,29.42,25,6,0,0.10
2013-2-18,34.0,24.2,16.2,12.6,5.2,1.7,58,45,26,30.15,29.75,14,4,0,0.01
2013-2-19,48.0,36.5,19.0,43.9,31.1,12.5,99,82,53,30.16,29.53,5,1,0,0.32
2013-2-20,39.6,32.8,24.4,39.3,19.4,9.1,99,60,37,29.82,29.53,14,4,0,0.01
2013-2-21,36.0,27.5,21.9,16.2,13.7,11.6,67,56,41,30.17,29.81,12,4,0,0.00
2013-2-22,40.6,32.2,20.3,28.2,22.6,15.3,87,68,50,30.34,30.17,6,2,0,0.00
2013-2-23,39.9,36.6,34.2,36.1,33.4,27.8,99,89,75,30.24,29.76,8,3,0,0.13
2013-2-24,41.2,37.0,32.0,39.3,36.0,31.2,99,96,89,29.82,29.59,8,3,0,0.15
2013-2-25,44.1,35.2,27.0,33.4,30.3,26.8,99,84,60,30.18,29.83,5,1,0,0.02
2013-2-26,42.6,36.8,28.0,35.1,31.6,27.3,99,82,68,30.28,29.98,7,2,0,0.05
2013-2-27,44.2,41.8,36.1,43.8,41.4,34.8,99,98,95,29.96,29.48,18,5,0,1.18
2013-2-28,45.7,39.6,35.2,40.9,38.4,34.9,99,96,81,29.57,29.46,5,1,0,0.03
2013-3-1,48.0,40.5,32.2,37.5,31.6,27.7,99,73,50,29.64,29.46,8,2,0,0.00
2013-3-2,41.4,37.0,31.5,30.5,27.4,26.5,86,69,58,29.66,29.58,7,2,0,0.00
2013-3-3,40.3,33.9,29.3,27.4,24.8,23.1,84,70,53,29.62,29.52,14,3,0,0.00
2013-3-4,43.3,34.1,28.4,25.3,22.3,20.6,77,62,45,29.73,29.56,18,4,0,0.00
2013-3-5,48.7,38.3,29.7,35.2,27.5,21.2,90,66,46,29.99,29.72,9,3,0,0.00
2013-3-6,43.3,38.5,31.1,36.9,33.3,29.1,95,82,66,29.96,29.80,16,6,0,0.00
2013-3-7,40.6,36.0,32.2,32.8,30.2,28.0,98,80,64,29.93,29.79,16,6,0,0.03
2013-3-8,37.9,34.0,31.5,33.7,31.5,26.6,99,91,66,30.02,29.85,9,2,0,0.37
2013-3-9,55.4,40.4,27.3,34.7,24.0,14.8,99,58,21,30.28,30.02,7,3,0,0.14
2013-3-10,43.3,34.4,24.3,34.8,30.8,24.1,99,87,67,30.36,30.26,8,2,0,0.00
2013-3-11,47.3,41.2,35.6,42.8,39.0,34.3,99,92,83,30.28,30.07,6,2,0,0.00
2013-3-12,51.6,46.7,39.6,51.3,45.9,39.3,99,97,90,30.07,29.67,8,2,0,0.72
2013-3-13,54.5,43.1,32.7,43.2,30.5,23.3,93,64,35,29.77,29.67,10,2,0,0.00
2013-3-14,37.2,32.7,29.3,29.6,18.9,11.7,90,59,35,29.82,29.73,11,4,0,0.00
2013-3-15,43.2,34.7,26.6,29.8,18.7,10.2,72,52,39,29.88,29.62,14,5,0,0.00
2013-3-16,42.3,34.8,27.1,29.1,20.9,8.8,86,59,25,29.84,29.65,7,2,0,0.00
2013-3-17,39.6,32.3,23.9,29.1,14.3,5.6,94,51,25,30.25,29.84,11,2,0,0.00
2013-3-18,35.2,30.0,21.4,29.5,14.1,2.3,92,53,31,30.41,30.09,8,3,0,0.00
2013-3-19,42.3,35.7,31.6,39.3,34.3,29.9,98,95,83,30.07,29.53,9,4,0,0.52
2013-3-20,45.0,35.5,26.6,32.0,22.6,18.4,99,62,36,29.79,29.65,14,3,0,0.00
2013-3-21,41.4,33.5,28.2,27.0,24.6,21.4,89,71,52,29.77,29.55,11,2,0,0.00
2013-3-22,45.0,34.5,23.9,22.6,17.5,12.6,78,50,33,29.73,29.58,17,4,0,0.00
2013-3-23,48.6,37.4,25.2,24.7,20.4,16.3,86,53,29,29.80,29.63,14,4,0,0.00
2013-3-24,50.5,39.4,27.1,33.4,23.8,18.2,80,55,36,29.84,29.65,13,3,0,0.00
2013-3-25,45.7,38.5,32.2,33.6,29.1,24.4,95,70,46,29.69,29.37,10,3,0,0.03
2013-3-26,49.1,38.8,28.4,32.5,28.0,22.7,94,68,39,29.77,29.45,5,1,0,0.00
2013-3-27,56.7,42.1,25.2,30.7,24.7,19.8,89,55,28,29.82,29.73,8,2,0,0.00
2013-3-28,49.1,42.5,33.8,37.3,32.2,27.0,80,67,50,29.99,29.80,6,2,0,0.00
2013-3-29,58.5,48.3,36.5,36.9,32.0,28.8,81,55,36,30.04,29.93,16,3,0,0.00
2013-3-30,58.8,47.4,35.1,33.1,29.1,20.2,79,51,23,30.06,29.97,12,3,0,0.00
2013-3-31,54.3,41.7,27.5,43.1,35.3,25.7,96,79,46,30.08,29.63,7,2,0,0.09
2013-4-1,57.7,47.7,36.1,47.0,40.8,17.8,99,78,47,29.75,29.49,8,3,0,0.02
2013-4-2,46.8,36.3,24.8,20.6,15.3,8.6,82,45,23,29.95,29.76,15,4,0,0.00
2013-4-3,48.2,38.3,28.2,17.9,13.9,10.8,56,38,24,30.16,29.95,12,4,0,0.00
2013-4-4,50.0,39.2,26.1,34.4,22.6,13.1,81,53,26,30.30,30.04,10,3,0,0.00
2013-4-5,59.7,46.1,39.7,39.2,31.3,18.1,85,61,24,30.03,29.57,11,3,0,0.00
2013-4-6,49.6,40.4,30.7,27.5,17.5,5.7,83,43,18,30.26,29.84,11,3,0,0.00
2013-4-7,54.1,42.6,26.1,43.4,34.9,24.4,95,76,48,30.28,29.95,9,3,0,0.00
2013-4-8,66.2,51.8,39.7,47.6,42.7,39.2,98,74,41,30.01,29.91,7,2,0,0.00
2013-4-9,82.0,60.4,45.3,53.9,46.2,42.2,99,66,28,30.00,29.78,9,2,0,0.04
2013-4-10,64.2,51.9,45.7,51.8,46.7,44.3,97,83,64,29.94,29.78,8,3,0,0.19
2013-4-11,61.2,49.2,44.6,50.6,45.0,36.1,99,86,63,30.03,29.73,7,2,0,0.01
2013-4-12,46.0,42.4,39.4,39.7,35.4,27.2,96,78,50,30.03,29.65,13,5,0,0.41
2013-4-13,56.3,45.1,38.8,39.4,37.3,34.5,96,76,45,29.88,29.63,8,3,0,0.01
2013-4-14,59.0,49.0,37.8,42.2,34.1,25.2,97,59,34,30.16,29.88,11,3,0,0.00
2013-4-15,50.5,43.3,36.0,41.5,34.4,26.0,98,72,51,30.35,30.15,7,1,0,0.00
2013-4-16,57.0,48.3,34.7,50.4,44.1,34.4,99,86,72,30.35,30.06,8,2,0,0.00
2013-4-17,70.3,58.2,42.8,52.1,42.1,31.8,94,60,24,30.25,30.02,8,2,0,0.00
2013-4-18,61.2,49.1,37.0,47.5,39.6,33.5,98,73,41,30.35,30.08,8,2,0,0.00
2013-4-19,67.1,57.8,50.0,60.8,56.2,47.8,99,95,77,30.07,29.63,13,3,0,0.02
2013-4-20,59.0,52.5,45.0,58.5,42.7,28.2,99,73,35,30.15,29.57,16,3,0,0.71
2013-4-21,54.1,44.1,33.8,34.5,26.1,20.3,76,50,28,30.60,30.16,8,3,0,0.00
2013-4-22,52.7,44.1,32.5,37.7,32.8,26.4,96,67,37,30.66,30.47,16,4,0,0.00
2013-4-23,48.0,43.8,39.9,42.8,38.8,32.2,91,83,71,30.47,29.95,9,4,0,0.00
2013-4-24,66.9,51.4,43.5,49.8,44.5,40.3,98,79,45,29.97,29.81,7,4,0,0.00
2013-4-25,66.2,54.1,39.0,50.9,39.1,28.8,96,62,26,30.19,29.81,10,3,0,0.05
2013-4-26,61.7,48.6,35.1,45.0,38.3,31.1,95,70,35,30.33,30.20,8,2,0,0.00
2013-4-27,56.3,47.9,37.8,47.3,44.0,37.0,99,87,66,30.36,30.25,7,2,0,0.00
2013-4-28,58.3,49.2,36.0,46.7,42.0,35.7,99,79,48,30.29,30.18,7,2,0,0.00
2013-4-29,58.3,51.8,45.7,50.0,44.6,41.1,98,78,62,30.23,30.16,7,2,0,0.00
2013-4-30,63.0,52.8,40.3,43.5,38.2,32.8,86,60,37,30.28,30.18,6,2,0,0.00
2013-5-1,63.5,49.2,35.6,49.3,41.6,31.6,93,76,50,30.42,30.28,6,2,0,0.00
2013-5-2,67.6,55.0,36.9,47.9,42.2,35.9,98,66,34,30.40,30.27,9,2,0,0.00
2013-5-3,64.9,53.2,43.2,48.1,41.8,36.1,95,67,44,30.42,30.29,9,3,0,0.00
2013-5-4,61.0,49.8,41.5,46.9,42.8,39.0,97,78,54,30.30,30.21,10,2,0,0.00
2013-5-5,56.7,47.7,36.7,46.2,42.2,35.7,98,82,66,30.25,30.18,8,2,0,0.00
2013-5-6,60.4,50.5,40.3,50.2,45.1,38.7,96,82,64,30.23,30.11,6,2,0,0.00
2013-5-7,66.4,54.0,40.1,58.2,50.4,39.3,99,88,61,30.13,30.05,7,1,0,0.00
2013-5-8,66.7,59.1,54.1,61.5,57.4,53.5,99,94,83,30.08,29.95,10,2,0,0.17
2013-5-9,64.4,57.5,54.9,61.1,56.6,54.1,99,97,88,29.95,29.80,5,1,0,0.28
2013-5-10,76.6,62.5,48.9,61.1,55.1,48.6,99,79,48,29.91,29.83,8,1,0,0.00
2013-5-11,65.5,59.2,54.1,61.6,57.5,53.0,99,94,83,29.86,29.63,9,1,0,0.50
2013-5-12,71.2,59.4,51.6,60.1,49.2,28.7,99,75,29,29.77,29.52,5,1,0,0.01
2013-5-13,60.3,51.6,41.5,37.0,32.4,27.5,72,49,32,29.98,29.78,12,3,0,0.00
2013-5-14,62.6,49.6,37.6,41.3,34.7,28.8,87,59,34,30.01,29.94,7,2,0,0.00
2013-5-15,61.3,50.4,36.1,54.0,45.4,35.1,98,84,50,30.02,29.62,6,1,0,0.03
2013-5-16,77.7,62.0,45.0,59.4,50.4,44.2,99,70,33,29.72,29.62,10,1,0,0.00
2013-5-17,73.0,59.9,46.6,49.7,46.2,42.9,92,64,35,30.14,29.72,7,2,0,0.00
2013-5-18,69.3,57.6,44.4,53.4,49.4,43.6,98,76,49,30.26,30.15,7,2,0,0.00
2013-5-19,61.0,54.2,46.9,55.0,51.6,45.8,99,91,74,30.31,30.14,4,1,0,0.34
2013-5-20,79.9,64.8,55.4,67.1,61.1,55.1,99,89,65,30.13,29.86,8,2,0,0.15
2013-5-21,81.9,68.6,59.7,70.5,63.7,58.2,98,85,66,29.89,29.73,8,2,0,0.00
2013-5-22,69.6,59.9,54.0,63.0,56.9,52.0,95,90,79,29.88,29.79,4,2,0,0.00
2013-5-23,71.8,64.6,58.1,66.7,62.7,57.0,99,94,84,29.85,29.72,8,2,0,0.81
2013-5-24,70.7,61.1,47.8,65.4,58.7,46.7,99,92,79,29.74,29.57,8,2,0,0.28
2013-5-25,50.9,47.5,43.9,48.0,45.1,40.3,98,91,83,29.78,29.68,15,3,0,0.15
2013-5-26,63.5,52.3,43.9,45.1,42.2,40.6,91,70,47,30.08,29.75,14,3,0,0.01
2013-5-27,73.2,57.5,40.5,51.5,44.1,39.5,97,66,32,30.15,30.03,10,2,0,0.00
2013-5-28,68.0,56.4,43.9,56.8,50.6,42.8,97,82,48,30.18,30.09,4,1,0,0.05
2013-5-29,77.0,63.5,56.7,66.4,60.1,56.1,98,89,70,30.09,29.92,5,1,0,0.07
2013-5-30,90.3,75.2,59.2,71.6,65.6,58.0,96,74,52,30.02,29.91,6,1,0,0.00
2013-5-31,89.6,75.3,62.1,72.3,65.8,60.4,95,74,52,30.02,29.87,5,1,0,0.00
2013-6-1,85.5,72.9,59.7,70.7,65.3,58.0,96,78,60,29.93,29.82,6,1,0,0.00
2013-6-2,79.0,70.6,62.8,68.8,64.5,60.7,94,82,69,29.84,29.71,11,2,0,0.00
2013-6-3,71.4,66.7,62.8,67.9,64.3,59.0,96,92,84,29.76,29.69,5,1,0,0.25
2013-6-4,79.7,64.7,53.6,57.4,47.0,41.2,85,54,34,30.00,29.75,8,3,0,0.00
2013-6-5,74.7,62.0,49.5,52.8,49.2,44.5,92,66,40,30.14,30.00,6,1,0,0.00
2013-6-6,67.1,59.5,50.7,60.3,55.6,48.8,96,87,75,30.12,30.04,7,2,0,0.00
2013-6-7,59.9,58.7,57.0,59.0,58.1,56.7,99,98,97,29.79,29.60,5,2,0,2.09
2013-6-8,78.3,65.7,55.9,66.3,60.8,55.4,99,85,65,29.92,29.45,9,2,0,1.22
2013-6-9,83.3,68.8,57.7,63.7,59.9,56.3,97,76,47,30.08,29.92,6,1,0,0.00
2013-6-10,71.6,63.4,56.8,63.3,59.3,55.7,97,87,67,30.10,29.83,6,2,0,1.39
2013-6-11,80.2,68.4,59.7,69.5,65.3,58.8,99,91,65,29.83,29.47,8,2,0,1.16
2013-6-12,74.8,65.7,55.8,62.3,56.6,52.8,96,75,52,29.73,29.52,8,2,0,0.00
2013-6-13,62.8,57.0,51.1,58.1,54.7,50.0,97,92,79,29.75,29.44,6,2,0,0.46
2013-6-14,75.0,59.9,52.7,59.9,54.5,51.9,97,84,57,29.73,29.44,6,2,0,0.56
2013-6-15,81.5,68.7,56.7,58.3,54.7,49.6,95,65,36,29.88,29.73,7,2,0,0.00
2013-6-16,75.7,66.1,52.7,65.6,59.8,51.3,96,81,58,29.89,29.65,5,1,0,0.00
2013-6-17,84.7,71.3,59.0,69.2,64.2,57.9,97,80,56,29.83,29.71,9,1,0,0.02
2013-6-18,76.8,66.6,59.2,67.1,62.5,58.1,96,87,70,29.83,29.74,7,1,0,0.23
2013-6-19,78.8,66.2,55.8,62.8,56.7,51.4,96,74,43,30.05,29.77,7,1,0,0.01
2013-6-20,78.8,65.3,50.5,60.8,55.3,49.1,96,73,47,30.20,30.06,4,1,0,0.00
2013-6-21,80.1,67.3,54.7,64.7,57.8,53.2,96,73,51,30.23,30.14,9,2,0,0.00
2013-6-22,80.2,68.7,56.8,64.6,60.0,55.1,95,76,47,30.18,30.06,8,1,0,0.00
2013-6-23,84.7,72.9,59.9,72.5,66.1,58.5,95,80,61,30.11,29.96,8,2,0,0.00
2013-6-24,90.3,79.4,70.3,76.6,71.4,65.9,94,78,60,29.96,29.79,8,2,0,0.00
2013-6-25,88.9,78.2,66.4,74.3,69.4,64.0,93,76,59,29.86,29.64,7,1,0,0.00
2013-6-26,85.1,76.6,68.9,73.3,70.0,66.5,93,81,66,29.71,29.63,6,1,0,0.02
2013-6-27,76.6,70.7,66.7,70.4,67.4,64.9,95,89,79,29.71,29.56,7,1,0,0.06
2013-6-28,83.3,73.8,67.8,73.5,69.8,66.6,97,88,69,29.56,29.39,8,2,0,0.19
2013-6-29,82.0,74.1,69.1,71.6,69.0,67.0,94,85,69,29.63,29.38,7,1,0,0.00
2013-6-30,77.2,72.1,68.4,70.4,68.4,66.0,95,88,77,29.84,29.63,6,1,0,0.40
2013-7-1,78.6,72.5,68.9,73.7,70.2,67.4,95,93,83,29.99,29.84,4,1,0,0.73
2013-7-2,80.6,75.1,72.0,73.9,71.3,69.4,94,88,76,30.10,29.99,7,2,0,0.00
2013-7-3,84.7,76.3,69.8,74.4,71.0,67.7,94,84,69,30.15,30.08,8,2,0,0.02
2013-7-4,88.3,79.1,72.5,76.3,72.8,70.0,94,82,63,30.15,30.05,7,2,0,0.01
2013-7-5,90.7,80.8,72.7,76.6,72.8,69.6,91,78,61,30.10,29.97,8,2,0,0.00
2013-7-6,95.2,81.1,73.2,76.2,72.8,70.0,90,77,54,30.01,29.87,7,2,0,0.00
2013-7-7,92.3,82.1,73.0,77.5,73.5,69.9,91,76,55,29.92,29.78,5,1,0,0.00
2013-7-8,90.7,79.5,73.4,74.8,70.6,66.0,91,75,55,29.92,29.80,8,2,0,0.00
2013-7-9,79.9,74.6,69.4,72.3,69.8,66.7,92,85,75,29.98,29.91,6,1,0,0.01
2013-7-10,81.9,76.3,72.1,74.0,71.6,69.3,92,86,76,29.94,29.69,6,2,0,0.27
2013-7-11,80.1,75.2,69.6,73.1,71.2,67.2,92,88,77,29.81,29.69,5,1,0,1.14
2013-7-12,79.9,73.0,68.0,68.8,65.6,61.3,92,78,66,30.04,29.79,5,2,0,0.00
2013-7-13,78.1,72.3,68.0,72.2,68.4,63.7,92,88,80,30.21,30.05,4,1,0,0.14
2013-7-14,93.4,79.6,71.8,75.8,72.7,69.5,94,81,57,30.22,30.10,5,1,0,0.00
2013-7-15,93.2,82.1,71.4,76.7,72.9,68.6,92,76,53,30.12,29.99,4,1,0,0.00
2013-7-16,97.7,83.1,72.5,77.9,72.0,67.9,89,71,50,30.05,29.97,4,1,0,0.00
2013-7-17,91.9,79.6,71.4,74.8,71.3,68.6,91,77,57,30.08,29.93,7,1,0,0.00
2013-7-18,99.3,84.5,73.9,78.7,74.1,70.0,89,73,50,29.94,29.81,7,1,0,0.00
2013-7-19,95.0,83.5,74.8,79.5,74.7,71.5,91,76,57,29.83,29.64,9,2,0,0.00
2013-7-20,94.1,83.2,74.5,76.0,73.4,66.8,86,73,55,29.72,29.57,10,2,0,0.00
2013-7-21,81.7,74.2,68.5,67.9,65.2,61.3,89,74,59,29.86,29.71,5,1,0,0.09
2013-7-22,80.2,73.4,68.4,70.3,67.9,65.1,91,84,69,29.87,29.73,6,1,0,0.00
2013-7-23,86.4,76.0,71.4,76.8,71.4,68.5,93,86,66,29.73,29.43,9,1,0,1.67
2013-7-24,84.7,77.0,70.3,74.3,69.0,59.0,92,77,59,29.77,29.47,5,1,0,0.00
2013-7-25,70.7,62.1,59.2,59.6,56.9,53.8,92,83,66,29.98,29.78,5,2,0,1.59
2013-7-26,74.1,65.8,59.4,67.7,61.9,57.1,92,87,73,29.95,29.86,6,1,0,0.22
2013-7-27,82.9,73.0,65.1,69.2,66.3,62.9,93,81,60,29.97,29.87,7,1,0,0.01
2013-7-28,81.5,73.5,67.3,69.7,66.8,64.6,91,80,60,29.89,29.84,5,1,0,0.00
2013-7-29,91.0,75.6,67.1,73.7,69.6,63.4,92,82,57,29.96,29.84,5,1,0,0.00
2013-7-30,82.6,71.8,61.3,65.8,60.7,55.1,89,70,52,30.03,29.94,6,1,0,0.00
2013-7-31,84.4,70.7,58.3,64.6,61.1,55.6,91,73,51,30.06,29.94,4,1,0,0.00
2013-8-1,79.2,68.8,63.3,68.0,63.2,60.3,91,83,65,29.95,29.77,5,1,0,0.04
2013-8-2,86.2,74.5,67.5,68.4,65.8,64.1,92,76,51,29.77,29.68,8,2,0,0.20
2013-8-3,80.8,70.1,64.4,66.9,63.9,60.1,90,81,58,29.78,29.71,8,2,0,0.06
2013-8-4,81.7,69.5,57.0,63.2,59.0,53.6,91,71,48,29.80,29.69,5,1,0,0.00
2013-8-5,83.5,66.0,54.0,58.6,53.5,48.9,90,67,38,29.94,29.80,9,2,0,0.00
2013-8-6,77.9,66.3,53.2,64.2,56.7,50.3,90,73,43,30.05,29.94,6,1,0,0.00
2013-8-7,76.5,67.6,55.6,65.5,60.5,53.0,91,79,65,30.11,30.02,6,2,0,0.00
2013-8-8,81.0,73.2,68.7,71.1,68.0,63.9,91,84,71,30.02,29.92,5,1,0,0.21
2013-8-9,77.5,73.6,72.0,73.3,70.6,68.9,92,90,86,29.95,29.68,7,2,0,0.69
2013-8-10,86.7,74.4,65.5,70.7,66.0,55.4,93,76,56,29.93,29.71,6,1,0,0.01
2013-8-11,83.7,68.5,53.4,60.1,56.0,49.6,89,66,45,30.03,29.93,5,1,0,0.00
2013-8-12,84.7,70.1,61.7,69.3,63.0,58.6,92,79,58,29.95,29.83,4,0,0,0.01
2013-8-13,78.3,68.4,63.0,68.3,64.7,60.0,92,88,70,29.84,29.60,3,0,0,0.19
2013-8-14,77.9,67.5,58.3,64.3,56.3,52.1,92,69,47,29.90,29.60,10,2,0,0.00
2013-8-15,80.4,66.1,51.6,58.9,54.5,48.8,91,69,43,30.04,29.90,6,2,0,0.00
2013-8-16,82.6,69.1,55.6,62.4,57.5,51.0,91,69,38,30.12,30.03,5,1,0,0.00
2013-8-17,82.2,69.0,56.1,65.8,60.0,53.5,91,75,52,30.19,30.11,4,1,0,0.00
2013-8-18,75.6,66.3,59.9,64.1,60.3,57.3,91,82,64,30.19,30.03,3,0,0,0.00
2013-8-19,81.1,69.5,57.7,67.3,62.1,55.1,92,78,59,30.03,29.90,6,1,0,0.00
2013-8-20,85.8,73.1,60.6,68.3,63.2,58.0,91,73,50,30.02,29.92,6,1,0,0.00
2013-8-21,86.9,73.9,60.8,71.1,64.6,58.2,91,74,50,30.07,29.93,8,1,0,0.00
2013-8-22,81.0,72.1,66.7,71.6,68.0,64.0,91,87,71,29.95,29.75,6,1,0,0.56
2013-8-23,82.6,72.1,62.1,68.1,63.7,58.5,92,76,51,29.99,29.73,4,1,0,0.00
2013-8-24,77.5,65.9,56.3,60.9,55.8,51.1,90,72,46,30.27,30.00,5,1,0,0.00
2013-8-25,83.5,67.8,52.0,65.1,57.3,49.5,92,72,42,30.31,30.11,4,1,0,0.00
2013-8-26,79.9,71.5,68.4,67.4,63.2,59.7,91,76,62,30.12,29.81,6,2,0,0.50
2013-8-27,82.6,72.2,66.9,71.6,67.4,63.9,92,86,67,29.80,29.70,7,1,0,1.08
2013-8-28,77.9,71.2,65.3,70.9,66.8,62.6,92,86,75,29.80,29.74,7,1,0,0.00
2013-8-29,75.7,69.7,63.1,66.6,63.8,58.5,91,82,69,29.94,29.80,5,1,0,0.00
2013-8-30,80.6,68.5,58.1,69.0,62.9,55.2,91,83,68,29.93,29.76,6,1,0,0.00
2013-8-31,82.4,74.2,67.8,72.1,69.2,65.1,92,85,71,29.76,29.70,6,2,0,0.00
2013-9-1,82.4,75.3,72.0,73.6,70.7,68.8,91,86,74,29.77,29.71,5,1,0,0.00
2013-9-2,76.8,73.6,71.6,72.4,70.4,68.8,92,90,84,29.75,29.59,4,1,0,0.60
2013-9-3,76.8,70.6,61.5,71.9,67.7,59.2,92,91,84,29.73,29.59,3,0,0,0.66
2013-9-4,78.4,67.3,56.5,63.9,59.4,54.5,93,77,54,29.86,29.73,9,1,0,0.01
2013-9-5,77.5,65.2,52.5,62.7,56.6,48.4,92,76,52,30.04,29.80,6,1,0,0.00
2013-9-6,71.1,59.2,48.7,51.0,47.4,42.5,89,67,43,30.18,30.04,6,1,0,0.00
2013-9-7,75.9,63.2,45.9,59.6,52.2,43.4,93,70,41,30.05,29.81,5,1,0,0.00
2013-9-8,79.3,68.8,54.7,65.5,57.9,44.5,88,69,45,29.98,29.68,6,1,0,0.00
2013-9-9,70.2,59.2,46.2,54.2,47.5,41.9,85,67,41,30.18,29.99,4,1,0,0.00
2013-9-10,76.5,69.5,58.3,69.1,63.8,53.6,91,82,74,30.09,29.94,6,2,0,0.00
2013-9-11,90.5,77.8,68.5,77.2,71.0,66.1,93,80,65,30.01,29.88,7,2,0,0.00
2013-9-12,81.9,74.0,67.8,72.6,69.0,65.1,92,85,73,29.90,29.60,7,1,0,0.49
2013-9-13,79.7,70.5,60.6,69.3,64.3,54.4,93,81,66,29.66,29.48,9,1,0,0.05
2013-9-14,73.2,60.2,50.5,57.5,52.6,47.4,92,77,56,29.99,29.66,7,2,0,0.00
2013-9-15,70.2,57.7,46.4,54.6,49.8,44.2,93,77,52,30.12,29.99,5,1,0,0.00
2013-9-16,71.6,60.0,52.7,58.2,54.3,42.8,93,82,61,30.14,29.95,10,1,0,0.00
2013-9-17,65.7,52.5,41.9,46.8,40.7,36.2,91,66,43,30.36,30.15,8,2,0,0.00
2013-9-18,70.9,54.8,40.3,52.0,45.4,38.4,93,74,44,30.28,30.10,6,1,0,0.00
2013-9-19,76.8,60.3,48.0,58.5,51.7,45.9,94,76,43,30.10,29.98,5,1,0,0.00
2013-9-20,75.7,61.4,47.3,63.6,55.0,45.4,94,81,54,30.03,29.92,4,1,0,0.00
2013-9-21,76.1,64.2,50.9,66.6,59.7,48.9,93,86,71,29.94,29.62,8,2,0,0.00
2013-9-22,72.9,65.1,51.3,66.5,57.5,44.0,92,77,57,29.77,29.53,11,2,0,0.30
2013-9-23,64.9,53.9,44.2,49.1,45.1,40.9,90,73,53,29.93,29.76,9,2,0,0.00
2013-9-24,71.1,53.6,39.9,51.5,44.8,37.8,93,75,44,29.95,29.76,7,1,0,0.00
2013-9-25,72.9,58.5,44.2,56.2,49.7,42.0,93,75,47,29.87,29.78,8,1,0,0.00
2013-9-26,67.6,58.8,49.3,54.2,51.0,46.8,92,76,57,30.03,29.87,4,1,0,0.01
2013-9-27,67.6,58.3,48.7,56.6,52.3,46.5,92,81,65,30.19,30.02,4,0,0,0.00
2013-9-28,73.4,59.5,47.7,58.3,52.3,45.8,94,79,55,30.25,30.16,5,1,0,0.00
2013-9-29,68.0,56.4,47.5,56.4,51.1,45.6,94,83,62,30.17,30.01,6,1,0,0.00
2013-9-30,72.7,59.2,51.3,56.4,51.8,48.8,92,78,48,30.02,29.88,4,1,0,0.00
2013-10-1,79.5,62.6,45.7,61.4,54.0,43.8,93,76,47,29.90,29.77,6,1,0,0.00
2013-10-2,81.5,66.3,52.5,66.2,59.2,50.2,93,79,55,29.88,29.76,5,1,0,0.00
2013-10-3,79.0,63.7,50.0,60.8,53.9,46.1,93,74,33,30.02,29.89,5,1,0,0.00
2013-10-4,77.5,63.5,54.0,66.4,58.3,51.5,93,84,68,29.99,29.88,4,1,0,0.00
2013-10-5,72.3,63.0,59.2,62.7,58.7,56.6,93,86,71,30.03,29.94,5,1,0,0.25
2013-10-6,65.1,61.5,59.9,59.7,58.5,56.5,93,90,80,30.09,30.00,5,1,0,0.10
2013-10-7,77.0,68.9,62.1,68.5,64.9,58.2,94,87,75,29.99,29.74,7,2,0,0.01
2013-10-8,68.0,58.8,49.1,57.9,48.6,43.8,91,71,43,30.26,29.81,5,1,0,0.00
2013-10-9,66.0,55.2,47.3,50.0,45.2,40.7,82,70,54,30.36,30.25,5,2,0,0.00
2013-10-10,66.9,57.6,50.0,57.1,51.0,45.1,84,79,69,30.25,30.03,7,3,0,0.00
2013-10-11,69.8,62.4,56.3,59.9,54.9,44.7,87,77,61,30.03,29.96,6,3,0,0.00
2013-10-12,73.4,60.5,53.8,59.8,50.8,42.8,81,71,53,30.27,30.01,7,3,0,0.00
2013-10-13,62.2,55.2,46.6,52.0,48.7,43.8,90,79,68,30.35,30.24,5,2,0,0.00
2013-10-14,61.7,51.3,40.6,50.6,45.6,39.0,94,82,65,30.35,30.19,5,1,0,0.00
2013-10-15,67.5,54.5,43.0,54.6,47.2,41.0,94,78,46,30.19,30.07,6,1,0,0.00
2013-10-16,69.4,57.5,47.7,58.5,52.5,45.5,93,84,68,30.07,29.83,4,1,0,0.00
2013-10-17,70.5,62.3,55.2,62.2,58.4,52.8,93,88,74,29.83,29.64,5,1,0,0.00
2013-10-18,71.2,62.4,47.5,62.0,52.7,43.2,92,72,47,29.86,29.55,10,2,0,0.00
2013-10-19,65.5,54.1,39.4,53.9,46.5,37.5,93,77,50,29.93,29.67,5,1,0,0.00
2013-10-20,64.9,55.7,41.7,56.8,43.8,35.6,91,68,34,29.97,29.63,9,2,0,0.01
2013-10-21,66.2,52.6,37.6,49.0,42.6,35.5,92,71,42,30.08,29.93,6,1,0,0.00
2013-10-22,69.4,58.1,45.1,55.3,49.6,42.3,90,74,52,29.92,29.63,7,1,0,0.00
2013-10-23,50.7,44.8,37.9,42.2,39.2,35.2,91,81,59,29.72,29.52,4,0,0,0.00
2013-10-24,56.7,45.1,34.3,38.1,32.2,27.9,91,64,34,29.87,29.62,10,2,0,0.00
2013-10-25,53.2,41.8,29.8,34.6,30.1,27.1,90,65,40,30.14,29.87,12,2,0,0.00
2013-10-26,57.0,45.1,28.8,41.5,34.0,26.8,94,68,40,30.13,29.82,12,4,0,0.01
2013-10-27,60.3,50.1,36.1,40.6,35.3,30.9,87,59,37,30.03,29.77,8,2,0,0.00
2013-10-28,60.4,45.4,29.3,41.5,35.1,27.0,92,70,44,30.27,30.03,8,1,0,0.00
2013-10-29,55.8,44.1,34.7,34.9,29.5,25.6,81,58,37,30.38,30.27,4,1,0,0.00
2013-10-30,60.1,48.0,34.5,49.2,40.6,29.3,91,76,61,30.30,30.13,3,0,0,0.00
2013-10-31,65.1,54.2,41.4,60.1,51.1,39.4,94,90,80,30.17,29.75,9,1,0,0.14
2013-11-1,66.7,62.8,59.4,61.9,58.6,55.4,93,86,77,29.74,29.45,11,4,0,0.25
2013-11-2,65.7,56.6,49.8,55.9,49.2,45.0,92,77,57,29.65,29.53,4,1,0,0.00
2013-11-3,50.5,45.4,34.0,45.2,34.4,20.8,85,66,49,30.34,29.66,5,2,0,0.00
2013-11-4,47.5,36.8,29.8,26.7,20.5,16.5,76,53,31,30.63,30.35,9,2,0,0.00
2013-11-5,52.2,41.5,30.7,39.4,33.6,25.6,85,74,60,30.65,30.46,6,1,0,0.00
2013-11-6,61.3,49.9,36.0,51.3,44.3,33.6,95,82,61,30.45,30.01,6,1,0,0.00
2013-11-7,63.9,54.2,37.9,59.9,51.1,34.4,95,89,78,30.00,29.63,10,2,0,0.41
2013-11-8,51.6,41.7,30.4,34.3,29.5,25.6,93,64,44,30.08,29.79,10,2,0,0.00
2013-11-9,49.5,40.7,27.3,38.8,29.6,24.8,90,66,44,30.22,29.96,10,2,0,0.00
2013-11-10,59.9,50.3,43.3,43.4,39.4,34.1,80,66,50,29.95,29.66,10,3,0,0.00
2013-11-11,53.2,47.9,37.2,41.4,33.9,28.3,72,58,43,30.10,29.86,11,4,0,0.00
2013-11-12,52.2,37.7,29.1,39.2,27.1,17.2,90,66,55,30.15,29.81,11,4,0,0.02
2013-11-13,38.8,29.9,23.9,18.5,16.2,12.1,75,58,34,30.25,30.14,12,3,0,0.00
2013-11-14,50.4,42.7,27.7,32.9,26.6,19.2,70,54,37,30.18,30.05,10,3,0,0.00
2013-11-15,57.7,46.1,34.7,42.6,35.7,29.5,92,69,35,30.19,30.09,7,2,0,0.00
2013-11-16,60.6,45.3,34.2,46.8,39.6,32.4,93,82,50,30.26,30.15,5,1,0,0.00
2013-11-17,59.0,51.6,35.8,56.2,49.3,34.0,95,92,83,30.24,29.77,5,1,0,0.13
2013-11-18,64.2,58.3,48.7,60.0,47.4,32.8,96,69,43,29.76,29.48,12,4,0,0.47
2013-11-19,47.8,41.9,33.1,35.4,25.8,21.1,63,53,41,30.20,29.62,13,4,0,0.00
2013-11-20,45.3,32.8,24.1,21.1,17.8,12.3,80,56,27,30.57,30.22,7,2,0,0.00
2013-11-21,48.7,35.9,21.6,35.0,26.6,17.6,85,70,43,30.60,30.33,4,1,0,0.00
2013-11-22,52.7,47.4,41.0,50.5,44.0,34.4,94,88,77,30.33,29.77,7,1,0,0.13
2013-11-23,50.9,43.0,31.1,48.2,28.3,18.5,91,58,33,29.88,29.75,14,4,0,0.00
2013-11-24,30.9,25.6,22.1,19.2,6.2,0.9,65,44,30,30.21,29.80,15,6,0,0.06
2013-11-25,36.9,28.1,18.9,25.1,13.0,6.0,67,53,38,30.37,30.21,20,4,0,0.00
2013-11-26,49.8,40.0,36.3,48.4,29.3,17.7,95,67,45,30.28,29.86,9,2,0,0.36
2013-11-27,61.0,50.9,37.6,59.3,48.5,30.9,95,91,75,29.85,29.14,16,5,0,1.94
2013-11-28,38.3,31.3,21.2,31.1,19.2,11.8,83,62,39,30.40,29.48,18,3,0,0.00
2013-11-29,38.3,29.0,22.1,22.6,18.5,14.5,82,66,48,30.70,30.39,6,1,0,0.00
2013-11-30,41.2,27.3,16.0,31.8,18.8,10.6,83,71,47,30.74,30.34,9,1,0,0.00
2013-12-1,49.1,43.9,39.9,45.7,40.8,32.5,95,89,70,30.33,29.92,8,1,0,0.09
2013-12-2,47.5,38.5,32.2,39.9,35.8,30.4,95,90,72,29.93,29.80,3,0,0,0.00
2013-12-3,52.9,39.0,29.8,38.9,33.3,28.0,95,82,50,29.90,29.76,5,1,0,0.00
2013-12-4,50.5,36.4,26.4,37.6,31.4,24.7,94,83,54,30.10,29.90,5,1,0,0.00
2013-12-5,55.8,50.0,35.1,53.0,47.8,33.0,95,92,89,30.10,29.87,3,1,0,0.00
2013-12-6,57.2,47.8,38.3,56.1,45.7,36.5,96,92,84,30.03,29.80,6,2,0,0.64
2013-12-7,41.9,35.1,27.5,36.3,29.1,20.9,94,79,58,30.43,29.99,16,2,0,0.28
2013-12-8,33.6,29.2,21.2,24.0,20.2,17.7,90,70,53,30.56,30.36,5,2,0,0.00
2013-12-9,40.3,34.5,27.9,38.4,32.4,24.6,94,92,83,30.36,29.82,7,3,0,0.10
2013-12-10,34.3,30.9,23.7,33.3,29.6,22.0,96,95,92,29.99,29.74,5,0,0,0.01
2013-12-11,35.8,28.6,23.4,24.4,21.3,18.3,93,75,60,30.22,30.00,9,3,0,0.11
2013-12-12,29.3,21.5,12.7,19.2,12.1,7.3,89,68,44,30.26,30.07,10,2,0,0.00
2013-12-13,33.8,25.7,18.5,18.4,13.9,8.4,79,61,49,30.30,30.01,9,3,0,0.00
2013-12-14,32.7,21.5,17.1,31.4,15.6,11.1,95,78,58,30.52,29.93,8,4,0,0.00
2013-12-15,36.9,32.6,26.1,35.6,30.2,23.2,95,91,79,29.91,29.34,11,3,0,0.52
2013-12-16,32.0,26.7,14.4,24.1,15.8,10.3,84,64,45,30.16,29.69,9,3,0,0.01
2013-12-17,24.6,18.8,9.9,22.1,15.0,7.1,90,85,72,30.20,29.82,10,3,0,0.00
2013-12-18,36.3,26.9,19.2,23.8,20.0,16.3,90,76,59,30.07,29.79,15,2,0,0.03
2013-12-19,45.5,35.6,23.2,35.1,27.5,18.8,83,73,52,30.09,29.93,10,2,0,0.03
2013-12-20,52.0,40.8,30.0,44.0,34.8,27.9,92,80,59,30.04,29.89,6,1,0,0.00
2013-12-21,56.8,50.2,41.0,50.3,46.4,39.4,95,87,76,29.95,29.84,11,2,0,0.00
2013-12-22,61.0,56.7,53.1,55.8,53.5,50.5,94,89,78,29.90,29.77,12,4,0,0.00
2013-12-23,58.6,48.4,39.4,54.7,46.2,34.1,95,92,81,30.02,29.82,7,1,0,0.83
2013-12-24,39.0,34.6,28.0,33.1,23.7,14.8,79,65,47,30.18,29.95,9,3,0,0.00
2013-12-25,29.1,23.3,17.6,15.9,9.4,5.4,71,56,38,30.49,30.19,9,2,0,0.00
2013-12-26,37.8,29.5,24.1,31.0,23.1,15.8,90,77,69,30.41,30.06,8,1,0,0.00
2013-12-27,39.9,28.3,18.3,24.7,21.0,16.1,92,76,48,30.27,30.17,6,1,0,0.00
2013-12-28,49.8,36.5,23.9,34.6,28.2,20.3,93,75,44,30.19,29.97,12,2,0,0.00
2013-12-29,46.6,39.1,29.7,45.0,36.6,27.7,94,91,73,29.99,29.27,10,2,0,1.11
2013-12-30,44.8,33.4,18.9,38.7,26.1,8.5,95,76,52,30.12,29.52,12,3,0,0.00
2013-12-31,27.9,21.6,14.0,20.0,12.1,4.9,81,67,41,30.19,29.98,7,2,0,0.00
2014-1-1,32.2,24.9,15.4,18.7,13.6,10.4,81,63,41,30.36,30.18,7,1,0,0.00
2014-1-2,27.3,22.4,9.9,22.0,18.2,7.1,89,84,70,30.23,29.61,8,5,0,0.00